{"data":{"norad_id":53684,"epoch":"2026-09-20T14:38:08.602656Z","epoch_age_seconds":72187,"freshness":"FRESH","line1":"1 53684U 22105AN  26263.60982179  .00000534  00000+0  40888-4 0  9990","line2":"2 53684  97.2851 137.3804 0002059  80.0270 280.1190 15.05659408222537","mean_motion":15.05659408,"eccentricity":0.0002059,"inclination_deg":97.2851,"raan_deg":137.3804,"arg_perigee_deg":80.027,"mean_anomaly_deg":280.119,"bstar":4.0888e-5,"rev_number":22253,"period_min":95.639159317763,"perigee_km":548.05589926904,"apogee_km":550.90869289516,"semimajor_km":6927.6192960821,"source":"CELESTRAK","updated_at":"2026-09-21T09:00:32.979049Z"}}